• In Romania
  • List of Countries
  • For 7 days
  • Water Temperature
  • Satellite Maps
  • Weather Map
  • Weather Widgets
  • user-avatar
    Login

    Hourly Weather Kitzbuhel

    Today, 26 March, Sunday

    Time Temperature Precipitation Wind Pressure Humidity
    00:00 +5°C° 0 mm 1 mps 677 mmHg 96%
    01:00 +4°C° 0 mm 1 mps 676 mmHg 96%
    02:00 +4°C° 0 mm 1 mps 676 mmHg 96%
    03:00 +3°C° 0 mm 1 mps 676 mmHg 96%
    04:00 +2°C° 0 mm 1 mps 675 mmHg 96%
    05:00 +3°C° 0 mm 1 mps 676 mmHg 96%
    06:00 +3°C° 0 mm 1 mps 676 mmHg 96%
    07:00 +5°C° 0 mm 1 mps 676 mmHg 93%
    08:00 +5°C° 0 mm 2 mps 677 mmHg 91%
    09:00 +6°C° 0 mm 2 mps 677 mmHg 89%
    10:00 +7°C° 0 mm 2 mps 677 mmHg 86%
    11:00 +7°C° 0 mm 2 mps 677 mmHg 86%
    12:00 +7°C° 0 mm 2 mps 677 mmHg 85%
    13:00 +7°C° 0 mm 2 mps 678 mmHg 83%
    14:00 +7°C° 0 mm 2 mps 678 mmHg 82%
    15:00 +7°C° 0 mm 2 mps 678 mmHg 81%
    16:00 +7°C° 0 mm 2 mps 678 mmHg 80%
    17:00 +5°C° 0 mm 2 mps 678 mmHg 84%
    18:00 +4°C° 0 mm 2 mps 678 mmHg 88%
    19:00 +3°C° 0 mm 1 mps 679 mmHg 92%
    20:00 +2°C° 0 mm 1 mps 679 mmHg 92%
    21:00 +1°C° 0 mm 1 mps 679 mmHg 93%
    22:00 -1°C° 0 mm 1 mps 679 mmHg 93%
    23:00 -1°C° 0 mm 1 mps 679 mmHg 93%

    Tomorrow, 27 March, Monday

    Time Temperature Precipitation Wind Pressure Humidity
    00:00 -1°C° 0 mm 1 mps 679 mmHg 93%
    01:00 -1°C° 0 mm 1 mps 679 mmHg 92%
    02:00 -1°C° 0 mm 1 mps 679 mmHg 92%
    03:00 -1°C° 0 mm 1 mps 679 mmHg 92%
    04:00 -1°C° 0 mm 1 mps 679 mmHg 91%
    05:00 0°C° 0 mm 1 mps 680 mmHg 88%
    06:00 +1°C° 0 mm 1 mps 680 mmHg 86%
    07:00 +2°C° 0 mm 1 mps 680 mmHg 83%
    08:00 +4°C° 0 mm 1 mps 680 mmHg 76%
    09:00 +7°C° 0 mm 1 mps 681 mmHg 69%
    10:00 +10°C° 0 mm 1 mps 681 mmHg 62%
    11:00 +11°C° 0 mm 1 mps 681 mmHg 59%
    12:00 +12°C° 0 mm 2 mps 681 mmHg 57%
    13:00 +13°C° 0 mm 2 mps 681 mmHg 54%
    14:00 +12°C° 0 mm 2 mps 681 mmHg 57%
    15:00 +12°C° 0 mm 2 mps 681 mmHg 59%
    16:00 +12°C° 0 mm 2 mps 680 mmHg 61%
    17:00 +9°C° 0 mm 1 mps 680 mmHg 69%
    18:00 +6°C° 0 mm 1 mps 679 mmHg 77%
    19:00 +2°C° 0 mm 1 mps 678 mmHg 85%
    20:00 +2°C° 0 mm 1 mps 679 mmHg 84%
    21:00 +2°C° 0 mm 1 mps 679 mmHg 82%
    22:00 +2°C° 0 mm 1 mps 679 mmHg 81%
    23:00 +2°C° 0 mm 1 mps 679 mmHg 79%

    Day after tomorrow, 28 March, Tuesday

    Time Temperature Precipitation Wind Pressure Humidity
    00:00 +2°C° 0 mm 1 mps 679 mmHg 78%
    01:00 +2°C° 0 mm 1 mps 680 mmHg 76%
    02:00 +2°C° 0 mm 1 mps 679 mmHg 75%
    03:00 +1°C° 0 mm 1 mps 679 mmHg 74%
    04:00 +1°C° 0 mm 1 mps 679 mmHg 73%
    05:00 +2°C° 0 mm 1 mps 679 mmHg 72%
    06:00 +3°C° 0 mm 1 mps 680 mmHg 71%
    07:00 +4°C° 0 mm 1 mps 680 mmHg 70%
    08:00 +6°C° 0 mm 1 mps 681 mmHg 68%
    09:00 +9°C° 0 mm 1 mps 681 mmHg 65%
    10:00 +12°C° 0 mm 1 mps 682 mmHg 63%
    11:00 +12°C° 0 mm 1 mps 682 mmHg 62%
    12:00 +13°C° 0 mm 1 mps 682 mmHg 61%
    13:00 +14°C° 0 mm 2 mps 682 mmHg 60%
    14:00 +13°C° 0 mm 2 mps 682 mmHg 63%
    15:00 +13°C° 0 mm 2 mps 682 mmHg 66%
    16:00 +13°C° 0 mm 2 mps 681 mmHg 69%
    17:00 +10°C° 0 mm 1 mps 681 mmHg 78%
    18:00 +7°C° 0 mm 1 mps 680 mmHg 86%
    19:00 +5°C° 0 mm 1 mps 680 mmHg 94%
    20:00 +5°C° 0 mm 1 mps 680 mmHg 94%
    21:00 +5°C° 0 mm 1 mps 681 mmHg 94%
    22:00 +5°C° 0 mm 1 mps 681 mmHg 94%
    23:00 +5°C° 0 mm 1 mps 682 mmHg 93%

    29 March, Wednesday

    Time Temperature Precipitation Wind Pressure Humidity
    00:00 +4°C° 0 mm 2 mps 682 mmHg 93%
    01:00 +4°C° 0 mm 2 mps 682 mmHg 92%
    02:00 +4°C° 0 mm 2 mps 682 mmHg 92%
    03:00 +4°C° 0 mm 2 mps 682 mmHg 92%
    04:00 +4°C° 0 mm 2 mps 682 mmHg 92%
    05:00 +4°C° 0 mm 2 mps 682 mmHg 91%
    06:00 +5°C° 0 mm 2 mps 683 mmHg 90%
    07:00 +6°C° 0 mm 1 mps 683 mmHg 89%
    08:00 +8°C° 0 mm 1 mps 683 mmHg 83%
    09:00 +10°C° 0 mm 1 mps 683 mmHg 78%
    10:00 +12°C° 0 mm 1 mps 684 mmHg 73%
    11:00 +12°C° 0 mm 1 mps 683 mmHg 70%
    12:00 +13°C° 0 mm 1 mps 683 mmHg 67%
    13:00 +14°C° 0 mm 2 mps 683 mmHg 64%
    14:00 +14°C° 0 mm 2 mps 683 mmHg 65%
    15:00 +14°C° 0 mm 2 mps 683 mmHg 67%
    16:00 +13°C° 0 mm 2 mps 682 mmHg 69%
    17:00 +10°C° 0 mm 2 mps 682 mmHg 77%
    18:00 +9°C° 0 mm 1 mps 682 mmHg 86%
    19:00 +6°C° 0 mm 1 mps 681 mmHg 94%
    20:00 +6°C° 0 mm 1 mps 682 mmHg 94%
    21:00 +6°C° 0 mm 1 mps 682 mmHg 95%
    22:00 +6°C° 0 mm 1 mps 683 mmHg 95%
    23:00 +5°C° 0 mm 1 mps 683 mmHg 95%

    30 March, Thursday

    Time Temperature Precipitation Wind Pressure Humidity
    00:00 +5°C° 0 mm 1 mps 683 mmHg 94%
    01:00 +5°C° 0 mm 1 mps 683 mmHg 94%
    02:00 +5°C° 0 mm 1 mps 683 mmHg 94%
    03:00 +4°C° 0 mm 1 mps 682 mmHg 94%
    04:00 +4°C° 0 mm 1 mps 682 mmHg 93%
    05:00 +5°C° 0 mm 1 mps 682 mmHg 91%
    06:00 +6°C° 0 mm 1 mps 683 mmHg 89%
    07:00 +7°C° 0 mm 1 mps 683 mmHg 87%
    08:00 +9°C° 0 mm 1 mps 683 mmHg 80%
    09:00 +10°C° 0 mm 0 mps 684 mmHg 72%
    10:00 +13°C° 0 mm 0 mps 684 mmHg 64%
    11:00 +13°C° 0 mm 0 mps 684 mmHg 62%
    12:00 +15°C° 0 mm 1 mps 684 mmHg 60%
    13:00 +16°C° 0 mm 1 mps 683 mmHg 57%
    14:00 +16°C° 0 mm 1 mps 683 mmHg 60%
    15:00 +16°C° 0 mm 1 mps 683 mmHg 62%
    16:00 +15°C° 0 mm 1 mps 682 mmHg 64%
    17:00 +13°C° 0 mm 1 mps 682 mmHg 74%
    18:00 +10°C° 0 mm 1 mps 681 mmHg 83%
    19:00 +7°C° 0 mm 1 mps 680 mmHg 92%
    20:00 +7°C° 0 mm 1 mps 681 mmHg 92%
    21:00 +7°C° 0 mm 1 mps 681 mmHg 91%
    22:00 +6°C° 0 mm 2 mps 681 mmHg 90%
    23:00 +6°C° 0 mm 2 mps 681 mmHg 89%

    31 March, Friday

    Time Temperature Precipitation Wind Pressure Humidity
    00:00 +6°C° 0 mm 2 mps 681 mmHg 88%
    01:00 +5°C° 0 mm 2 mps 681 mmHg 86%
    02:00 +5°C° 0 mm 2 mps 680 mmHg 86%
    03:00 +5°C° 0 mm 2 mps 680 mmHg 86%
    04:00 +5°C° 0 mm 2 mps 680 mmHg 86%
    05:00 +5°C° 0 mm 2 mps 680 mmHg 85%
    06:00 +6°C° 0 mm 2 mps 680 mmHg 84%
    07:00 +6°C° 0 mm 2 mps 680 mmHg 83%
    08:00 +9°C° 0 mm 2 mps 680 mmHg 75%
    09:00 +12°C° 0 mm 1 mps 680 mmHg 67%
    10:00 +15°C° 0 mm 1 mps 680 mmHg 59%
    11:00 +16°C° 0 mm 1 mps 680 mmHg 57%
    12:00 +18°C° 0 mm 1 mps 680 mmHg 54%
    13:00 +19°C° 0 mm 1 mps 679 mmHg 51%
    14:00 +18°C° 0 mm 1 mps 679 mmHg 54%
    15:00 +18°C° 0 mm 1 mps 678 mmHg 57%
    16:00 +16°C° 0 mm 1 mps 678 mmHg 60%
    17:00 +14°C° 0 mm 1 mps 677 mmHg 70%
    18:00 +11°C° 0 mm 1 mps 676 mmHg 81%
    19:00 +8°C° 0 mm 1 mps 675 mmHg 92%
    20:00 +7°C° 0.1 mm 2 mps 676 mmHg 91%
    21:00 +7°C° 0.1 mm 2 mps 676 mmHg 90%
    22:00 +7°C° 0.1 mm 2 mps 676 mmHg 89%
    23:00 +6°C° 0 mm 2 mps 676 mmHg 89%
    Show more